Location: Juzet
(42.9779°N, 0.7597°E)
Time: 03:02:03
(UTC+00:00)

ATLAS 5 CENTAUR R/B - Pass Details

Date: 14 July 2020
Orbit: 534 x 1124 km, 63.4° (Epoch: 30 July)

Event Time Altitude Azimuth Distance (km) Brightness Sun altitude
Rises 01:34:28 0° 329° (NNW) 3,228 5.7 -22.0°
Reaches altitude 10° 01:37:01 10° 341° (NNW) 2,396 5.2 -21.9°
Maximum altitude 01:41:55 30° 42° (NE) 1,551 4.2 -21.5°
Drops below altitude 10° 01:47:29 10° 102° (ESE) 2,744 5.0 -21.1°
Sets 01:50:36 0° 112° (ESE) 3,776 5.6 -20.8°
